TimeMDT,TemperatureF,Dew PointF,Humidity,Sea Level PressureIn,VisibilityMPH,Wind Direction,Wind SpeedMPH,Gust SpeedMPH,PrecipitationIn,Events,Conditions,WindDirDegrees,DateUTC
12:53 AM,81.0,64.0,56,29.79,10.0,SE,6.9,-,N/A,,Clear,130,2013-07-24 06:53:00
1:53 AM,79.0,64.9,62,29.78,10.0,Calm,Calm,-,N/A,,Clear,0,2013-07-24 07:53:00
2:53 AM,77.0,66.0,69,29.78,10.0,Calm,Calm,-,N/A,,Clear,0,2013-07-24 08:53:00
3:53 AM,75.9,66.9,74,29.79,10.0,Calm,Calm,-,N/A,,Clear,0,2013-07-24 09:53:00
4:53 AM,75.0,66.9,76,29.80,10.0,NE,4.6,-,N/A,,Clear,50,2013-07-24 10:53:00
5:53 AM,73.9,68.0,82,29.81,10.0,Calm,Calm,-,N/A,,Clear,0,2013-07-24 11:53:00
6:53 AM,75.9,68.0,76,29.82,10.0,Calm,Calm,-,N/A,,Clear,0,2013-07-24 12:53:00
7:53 AM,78.1,66.9,68,29.83,10.0,Calm,Calm,-,N/A,,Clear,0,2013-07-24 13:53:00
8:53 AM,82.0,66.9,60,29.84,10.0,Calm,Calm,-,N/A,,Clear,0,2013-07-24 14:53:00
9:53 AM,87.1,63.0,44,29.84,10.0,Calm,Calm,-,N/A,,Clear,0,2013-07-24 15:53:00
10:53 AM,90.0,64.0,42,29.85,10.0,ENE,4.6,-,N/A,,Clear,60,2013-07-24 16:53:00
11:53 AM,91.9,61.0,35,29.85,10.0,ESE,6.9,-,N/A,,Clear,110,2013-07-24 17:53:00
12:53 PM,93.9,60.1,32,29.82,10.0,SSE,9.2,-,N/A,,Clear,150,2013-07-24 18:53:00
1:53 PM,95.0,57.9,29,29.78,10.0,SE,9.2,-,N/A,,Clear,140,2013-07-24 19:53:00
2:53 PM,97.0,57.0,26,29.77,10.0,South,10.4,-,N/A,,Clear,170,2013-07-24 20:53:00
3:53 PM,88.0,63.0,43,29.81,9.0,East,28.8,42.6,N/A,,Scattered Clouds,80,2013-07-24 21:53:00
4:53 PM,84.0,63.0,49,29.82,10.0,East,21.9,27.6,N/A,,Scattered Clouds,80,2013-07-24 22:53:00
5:53 PM,84.9,61.0,44,29.82,10.0,East,8.1,-,N/A,Thunderstorm,Partly Cloudy,100,2013-07-24 23:53:00
6:13 PM,84.2,60.8,45,29.99,10.0,East,9.2,-,0.00,,Mostly Cloudy,100,2013-07-25 00:13:00
6:46 PM,84.2,62.6,48,30.01,10.0,SW,6.9,-,0.00,Thunderstorm,Clear,220,2013-07-25 00:46:00
6:53 PM,84.0,62.1,47,29.84,10.0,West,8.1,-,0.00,Thunderstorm,Partly Cloudy,260,2013-07-25 00:53:00
7:01 PM,84.2,62.6,48,30.02,10.0,West,11.5,-,N/A,,Partly Cloudy,270,2013-07-25 01:01:00
7:53 PM,80.1,66.0,62,29.84,10.0,WNW,9.2,-,N/A,,Overcast,300,2013-07-25 01:53:00
8:53 PM,80.1,66.9,64,29.88,10.0,North,5.8,-,N/A,,Clear,350,2013-07-25 02:53:00
9:53 PM,79.0,63.0,58,29.92,10.0,NW,17.3,-,N/A,,Clear,320,2013-07-25 03:53:00
10:53 PM,75.0,66.0,73,29.95,10.0,NW,11.5,-,N/A,,Clear,320,2013-07-25 04:53:00
11:53 PM,75.0,66.0,73,29.94,10.0,NNW,10.4,-,N/A,,Clear,330,2013-07-25 05:53:00